Showing default

GLOBALSTAR M096, 39075

Orbit data source: Space-Track

GLOBALSTAR M096, 39075 is a payload satellite owned by Globalstar (US) in LEO that was launched on Wed, 06 Feb 2013 UTC via a SOYUZ-2-1A launch vehicle from the Tyuratam Missile And Space Complex (TTMTR). Payload-class satellites include a variety of spacecraft equipped with specific instruments for various scientific and technological missions. These include communications satellites like Starlink; space stations such as the ISS; scientific satellites like the Hubble; Earth observation satellites from companies like Planet Labs, Umbra, and HawkEye 360; GPS; miniature CubeSats for education and research; and military/defense satellites.

Loading next visibility...
Identifier
39075, 2013-005D
Orbit
LEO
Country
Flag of UnknownUnknown / GLOB
Related business
Manufacturer
Thales Alenia
Mission
Operational Commercial Communications
Bus & Motor
PRISMA?, LS-400 AOCS?
Mass
715 kg wet, ~500 kg dry
Launch date (UTC)
2013-02-06 (13 years ago)
Launch vehicle
SOYUZ-2-1A
Launch site
Tyuratam Missile And Space Complex (TTMTR)
Object type
Payload
Rocket body
Debris
Shape & HBR
Trap Cyl + 2 Pan, 6.0 m
Radar Cross Section
20.931 m², Large (>1 m²)

Expand to show TLE details & history
Last TLE update: 17 hours ago

TLE from 17 hours ago
0 GLOBALSTAR M096
1 39075U 13005D   25348.88783978 -.00000100  00000-0  20724-4 0  9994
2 39075  52.0090  40.5909 0000229 145.2183 214.8699 12.62269383594117
Epoch: 2025-12-14T21:18Z
TLE epoch observation values (Epoch: 2025-12-14T21:18:29.356Z)
Latitude
0.00002°
Longitude
-2.82571°
Altitude
1,414.42 km
Speed
7.154 km/s
True Right ascension
02h 42m 21s
True Declination
0° 00' 00"
Sunlit
Object was in full shadow at epoch
Visualization orbit readout
Latitude
Unknown
Longitude
Unknown
Altitude
Unknown
Speed
Unknown
Apparent Right ascension
Unknown
Apparent Declination
Unknown
Sunlit
N/A
Visualization observer readout
Local Sidereal Time
13:23:47
Azimuth
Unknown
Elevation
Unknown
Doppler factor
Unknown
Orbital elements
Apogee altitude
1,414.161 km
Perigee altitude
1,413.804 km
Semi-major axis
7,792.119 km
Eccentricity
0.00002
Inclination
52.009°
RAAN
40.5909°
Arg. of periapsis
145.2183°
True anomaly
214.8684°
Mean anomaly
214.8699°
Eccentric anomaly
214.86915°
Mean motion
3.15544 °/min
Orbital period
114.09 mins
BSTAR
0.000020724
Loading maneuver chart data...
Computing Atmospheric mass density...
Loading historical data...
Loading historical data...
Loading historical data...
Loading historical data...
Loading historical data...
Loading historical data...
Loading historical data...

Documentation

Showing up to 5 results
|